Location: Boca do Mato
(22.9085°S, 43.2930°W)
Time: 01:40:30
(UTC+00:00)

YAOGAN 6 - Visible Passes

Search period start: 24 October 2020 00:00
Search period end: 03 November 2020 00:00
Orbit: 467 x 502 km, 97.0° (Epoch: 23 October)

Date Brightness Start Highest point End Pass type
(mag) Time Alt. Az. Time Alt. Az. Time Alt. Az.
25 Oct 6.2 07:32:51 10° ENE 07:34:48 14° ESE 07:36:45 10° SE visible
27 Oct 5.8 21:25:53 10° SSW 21:28:36 21° WSW 21:31:20 10° NW visible
29 Oct 6.3 07:29:13 10° E 07:30:47 12° ESE 07:32:20 10° SE visible
30 Oct 6.7 21:48:03 10° WSW 21:48:46 10° WSW 21:49:29 10° W visible
02 Nov 6.5 07:25:43 10° E 07:26:43 11° ESE 07:27:44 10° ESE visible
